Regional Weather Roundup
Issued by NWS Charleston, SC

Current Version | Previous Version | Graphics & Text | Print | Product List | Glossary On
Versions: 1 2 3 4 5 6 7 8 9 10 11 12 13 14 15 16 17 18 19 20 21 22 23 24 25 26 27 28 29 30 31 32 33 34 35 36 37 38 39 40 41 42 43 44 45 46 47 48 49 50
000
ASUS42 KCHS 050212
RWRCHS

REGIONAL WEATHER ROUNDUP
NATIONAL WEATHER SERVICE CHARLESTON SC
1000 PM EDT FRI SEP 04 2015

NOTE: "FAIR" INDICATES FEW OR NO CLOUDS BELOW 12,000 FEET WITH NO
SIGNIFICANT WEATHER AND/OR OBSTRUCTIONS TO VISIBILITY.

NOT ALL STATIONS ARE QUALITY CONTROLLED BY THE NATIONAL
WEATHER SERVICE. USE DATA WITH CAUTION...ESPECIALLY
DEWPOINT OBSERVATIONS.

SCZ027-030-031-034>040-042>050-050300-
...SOUTHEAST SOUTH CAROLINA...

CITY           SKY/WX    TMP DP  RH WIND       PRES   REMARKS
N CHARLESTON   PTCLDY    75  70  84 N3        30.00R
WATERFRONT PRK   N/A     79  75  87 CALM      29.96R
MOUNT PLEASANT FAIR      75  75 100 CALM      29.99S FOG
JOHNS ISLAND   FAIR      75  73  94 CALM      30.00R
PINOPOLIS        N/A     82  73  74 CALM      29.92R
MONCKS CORNER  FAIR      75  72  88 CALM      30.00R
SUMMERVILLE    FAIR      73  73 100 CALM      30.01R
BEAUFORT MCAS  CLEAR     75  72  90 CALM      30.00R
BEAUFORT ARPT  FAIR      75  75 100 CALM      29.99R
HILTON HEAD IS PTCLDY    75  75 100 CALM      30.01R
WALTERBORO     CLEAR     75  72  88 CALM      30.01R
ALLENDALE      FAIR      75  72  88 CALM      30.00R

...SOUTHERN MIDLANDS AND PEE DEE...

CITY           SKY/WX    TMP DP  RH WIND       PRES   REMARKS
GEORGETOWN     NOT AVBL
KINGSTREE      NOT AVBL
ORANGEBURG     CLEAR     76  70  82 CALM      30.01R
BARNWELL       FAIR      75  75 100 E3        30.02R
AIKEN          FAIR      77  66  69 CALM      30.04R
MANNING        FAIR      75  72  88 CALM      30.01R
COLUMBIA       MOCLDY    83  71  67 S5        30.00R
SUMTER         PTCLDY    78  67  70 SW3       29.99R
FLORENCE       MOCLDY    80  73  79 E15G21    30.02R THUNDER
MYRTLE BEACH   CLEAR     79  72  78 VRB6      30.03R
N MYRTLE BEACH PTCLDY    78  75  90 N6        30.02R

$$

GAZ063-065-086>088-099>101-113>116-118-119-134>141-150-050300-
...SOUTHEAST GEORGIA...

CITY           SKY/WX    TMP DP  RH WIND       PRES   REMARKS
SAVANNAH ARPT  MOCLDY    76  72  87 CALM      30.00R
HUNTER AAF     PTCLDY    76  76 100 W2        29.98R
FORT STEWART   PTCLDY    76  73  89 CALM      29.98R
STATESBORO     PTCLDY    73  73 100 E3        30.01R
SYLVANIA       NOT AVBL
CLAXTON        NOT AVBL

...CSRA...CENTRAL AND FAR SOUTHEAST GEORGIA...

CITY           SKY/WX    TMP DP  RH WIND       PRES   REMARKS
THOMSON        PTCLDY    79  75  89 CALM      30.04S
AUGUSTA-BUSH   CLEAR     74  72  93 S5        30.00R
AUGUSTA-DANIEL CLEAR     81  71  71 E6        30.01R
SWAINSBORO     FAIR      73  72  94 N3        30.01R
VIDALIA        PTCLDY    79  72  78 CALM      30.00R
EASTMAN        FAIR      76  76 100 CALM      30.03R
HAZLEHURST     FAIR      79  74  86 CALM      29.98R
ALMA           PTCLDY    73  72  96 S6        29.99R
WAYCROSS       MOCLDY    76  76  99 CALM      30.00R
JESUP          FAIR      77  75  94 CALM      30.00R
BAXLEY         FAIR      77  73  88 CALM      30.00R
BRUNSWICK      CLOUDY    77  73  88 CALM      30.00R
SAINT SIMONS   CLOUDY    82  77  84 SW6       29.98R HX  90

$$

SCZ027-028-034-036>038-045-046-048>050-GAZ119-141-050300-
...LAKE AND SUPPLEMENTAL COASTAL OBSERVATIONS...

STATION/POSITION TIME  TEMP    WIND        PRES    WAVE   SWELL
                       AIR SEA DIR/SP/G            HT/PER HT/PER/DIR
                 (UTC) (F)     (DEG/KT/KT) (MB)    (FT/S) (FT/S/D)
UPR LAKE MARION  NOT AVBL
WINYAH BAY       0045   79     320/  1     1014.0
LAKE MURRAY      0100   83      30/  2/  5 1014.2R
ACE BASIN NERRS  NOT AVBL
FORT PULASKI     0100   78 83  290/  3/  3 1015.6R
SAPELO ISLAND    0100   79     260/  4     1014.0S

$$

ANZ835-935-AMZ111-154-330-350-352-354-370-450-454-472-050300-
...C-MAN AND BUOY OBSERVATIONS...

STATION/POSITION TIME  TEMP    WIND        PRES    WAVE   SWELL
                       AIR SEA DIR/SP/G            HT/PER HT/PER/DIR
                 (UTC) (F)     (DEG/KT/KT) (MB)    (FT/S) (FT/S/D)
BUOY 41004       0150   82 84   70/  4/  4 1015.3R   1/ 6   2/ 6
BUOY 41008       0150   83 85  140/  4/  6 1015.7R   1
FOLLY BEACH CMAN 0100   77     310/  3/  3 1015.3R
CAPERS NEARSHORE 0108   82     150/  2/  4 1015.3R
FRIPP NEARSHORE  0100   83     140/  4/  4 1014.9R


STATION/POSITION TIME  TEMP    WIND        PRES    WAVE   SWELL
                       AIR SEA DIR/SP/G            HT/PER HT/PER/DIR
                 (UTC) (F)     (DEG/KT/KT) (MB)    (FT/S) (FT/S/D)
5E ST. MARYS GA  0121      86                N/A     1/11
FRYING PAN BUOY  0150   83 83   60/  4/  4 1016.1R   1/ 5   2/ 40/ 5
BUOY 41025       0150   82 84   40/ 14/ 16 1015.5R   2/ 4
CAPE LOOKOUT NC  0100   81      40/ 16/ 19 1015.2R
BUOY 41002       0150   83 84   20/ 10/ 12 1014.3R   1/12   2/ 50/12
BUOY 41010       0120   83 85   10/ 10/ 12 1014.4R
ST AUGUSTINE FL  0200   79 86  270/  6/  8 1016.2R


$$



USA.gov is the U.S. government's official web portal to all federal, state and local government web resources and services.